Torna al catalogo

FENGYUN 1C DEB

LostPO
NORAD 35129·DEBRIS·🇨🇳 China

Lanciato May 10, 1999 da Taiyuan Satellite Launch Center

Loading…

Prossimi Passaggi (prossime 24 ore)

TLE

ObsoletoSource: Space-Track

Epoca: Oct 29, 2021, 08:00 UTC

1 35129U 99025DLH 21302.33397456  .00002552  00000-0  13865-2 0  9992
2 35129  98.3023 222.5599 0140690 342.2206  17.4069 14.08209248358001

Traccia FENGYUN 1C DEB in tempo reale con AllMySat

Download on the App Store